Regional Weather Roundup
Issued by NWS

Home | Current Version | Previous Version | Text Only | Print | Product List | Glossary Off
Versions: 1 2 3 4 5 6 7 8 9 10 11 12 13 14 15 16 17 18 19 20 21 22 23 24 25 26 27 28 29 30 31 32 33 34 35 36 37 38 39 40 41 42 43 44 45 46 47 48 49 50

000
ASUS43 KOAX 260810
RWRNE

WEATHER ROUNDUP FOR NEBRASKA
NATIONAL WEATHER SERVICE OMAHA NE
300 AM CDT THU MAR 26 2015

NOTES: SATELLITE DATA IS BEING USED TO AUGMENT CLOUD COVER ABOVE
       12000 FEET.
       "FAIR" INDICATES FEW OR NO CLOUDS BELOW 12,000 FEET WITH NO
       SIGNIFICANT WEATHER AND/OR OBSTRUCTIONS TO VISIBILITY.

  * THESE STATIONS DO NOT REPORT WEATHER SUCH AS RAIN...SNOW OR FOG.

NEZ001>004-019>022-054>056-260900-
NEBRASKA PANHANDLE

CITY           SKY/WX    TMP DP  RH WIND       PRES   REMARKS
SCOTTSBLUFF    PTCLDY    27  22  81 N6        30.20F WCI  20
ALLIANCE       CLEAR     20  16  84 W7        30.19F WCI  11
CHADRON        CLEAR     23  18  81 SW5       30.18F WCI  17
KIMBALL        CLOUDY    29  27  94 W5        30.19S WCI  24
SIDNEY         CLOUDY    30  25  81 NW12      30.20F WCI  20
$$

NEZ057>060-069>072-079>082-260900-
SOUTHWEST NEBRASKA

CITY           SKY/WX    TMP DP  RH WIND       PRES   REMARKS
NORTH PLATTE   CLEAR     20  16  84 CALM      30.24S
IMPERIAL         N/A     26  20  77 CALM      30.24F
LEXINGTON      CLEAR     22  18  85 W7        30.24F WCI  14
MCCOOK         CLEAR     22  17  81 W7        30.26S WCI  13
OGALLALA       CLEAR     24  20  87 CALM      30.23S
$$

NEZ005>010-023>029-035>040-094-260900-
NORTH CENTRAL NEBRASKA

CITY           SKY/WX    TMP DP  RH WIND       PRES   REMARKS
VALENTINE      CLEAR     17  14  88 W6        30.22S WCI   9
AINSWORTH      CLEAR     22  18  84 W3        30.22S
BROKEN BOW     CLEAR     19  13  77 CALM      30.23R
O`NEILL        CLEAR     25  20  82 NW5       30.23S WCI  19
ORD            CLEAR     21  15  78 NW6       30.22F WCI  13
THEDFORD       CLEAR     22  19  89 SW3       30.22S
$$

NEZ041-046>049-061>064-073>077-083>087-260900-
SOUTH CENTRAL NEBRASKA

CITY           SKY/WX    TMP DP  RH WIND       PRES   REMARKS
GRAND ISLAND   FAIR      24  18  77 W7        30.23F WCI  16
AURORA         CLEAR     27  23  85 NW8       30.22S WCI  18
HASTINGS       CLEAR     25  19  78 NW8       30.22F WCI  16
HEBRON         CLEAR     30  25  81 NW5       30.22S WCI  26
HOLDREGE       CLEAR     23  17  79 NW5       30.24R WCI  17
KEARNEY *      CLEAR     23  16  74 NW8       30.24S WCI  14
YORK           CLEAR     28  27  93 NW9       30.22S WCI  20
$$

NEZ011>018-030>034-042>045-260900-
NORTHEAST NEBRASKA

CITY           SKY/WX    TMP DP  RH WIND       PRES   REMARKS
NORFOLK        CLEAR     27  21  78 W7        30.22S WCI  19
ALBION         PTCLDY    24  20  84 NW5       30.23F WCI  19
BLAIR          CLEAR     30  24  77 NW5       30.18F WCI  25
COLUMBUS *     CLEAR     25  16  68 NW9       30.23F WCI  15
FREMONT        CLEAR     28  24  84 NW5       30.21S WCI  23
TEKAMAH        CLEAR     27  22  81 W13       30.21F WCI  16
WAYNE          CLEAR     25  20  83 CALM      30.23S
$$

NEZ050>053-065>068-078-088>093-260900-
SOUTHEAST NEBRASKA

CITY           SKY/WX    TMP DP  RH WIND       PRES   REMARKS
LINCOLN        CLEAR     28  23  81 N6        30.21F WCI  22
OMAHA EPPLEY   CLEAR     28  25  88 N7        30.20S WCI  21
BEATRICE       CLEAR     30  26  83 N8        30.19F WCI  23
FALLS CITY     CLEAR     32  28  85 NW8       30.17S WCI  25
NEBRASKA CITY  CLEAR     33  27  79 N9        30.17F WCI  25
PLATTSMOUTH    CLEAR     30  24  79 NW6       30.18F WCI  24
$$

NEZ044-045-051>053-067-260900-
OMAHA AREA

CITY           SKY/WX    TMP DP  RH WIND       PRES   REMARKS
OMAHA EPPLEY   CLEAR     28  25  88 N7        30.20S WCI  21
BLAIR          CLEAR     30  24  77 NW5       30.18F WCI  25
FREMONT        CLEAR     28  24  84 NW5       30.21S WCI  23
MILLARD        CLEAR     31  24  77 NW6       30.20F WCI  25
OFFUTT AFB     CLEAR     27  23  85 NW6       30.18F WCI  21
PLATTSMOUTH    CLEAR     30  24  79 NW6       30.18F WCI  24
WAHOO          FAIR      28  23  79 NW6       30.21F WCI  22
$$


USA.gov is the U.S. government's official web portal to all federal, state and local government web resources and services.